When you browse on this site, cookies collect data to enhance your experience and personalize the content and advertising you see.
Visit our Privacy Policy to learn more. By continuing to use the site, you agree to this use of cookies and data.
  • In Hungary
  • List of Countries
  • For 7 days
  • Water Temperature
  • Satellite Maps
  • Weather Map
  • News
  • Weather Widgets
  • user-avatar
    Login

    Hourly Weather Jumprava

    Today, 27 June, Thursday

    Time Temperature Precipitation Wind Pressure Humidity
    00:00 +19°C° 0.9 mm 1 mps 750 mmHg 95%
    01:00 +19°C° 0.9 mm 1 mps 750 mmHg 96%
    02:00 +19°C° 0 mm 1 mps 749 mmHg 97%
    03:00 +19°C° 0.9 mm 1 mps 749 mmHg 97%
    04:00 +18°C° 0.9 mm 2 mps 748 mmHg 97%
    05:00 +17°C° 0.9 mm 3 mps 748 mmHg 98%
    06:00 +18°C° 0.2 mm 3 mps 748 mmHg 95%
    07:00 +18°C° 0.2 mm 4 mps 748 mmHg 93%
    08:00 +18°C° 0.2 mm 4 mps 748 mmHg 90%
    09:00 +19°C° 0 mm 5 mps 748 mmHg 82%
    10:00 +19°C° 0 mm 5 mps 748 mmHg 75%
    11:00 +20°C° 0 mm 6 mps 748 mmHg 67%
    12:00 +20°C° 0.1 mm 7 mps 749 mmHg 64%
    13:00 +21°C° 0.1 mm 7 mps 749 mmHg 61%
    14:00 +21°C° 0.1 mm 7 mps 749 mmHg 58%
    15:00 +20°C° 0 mm 7 mps 749 mmHg 56%
    16:00 +20°C° 0 mm 8 mps 749 mmHg 55%
    17:00 +20°C° 0 mm 8 mps 749 mmHg 53%
    18:00 +17°C° 0 mm 7 mps 749 mmHg 58%
    19:00 +16°C° 0 mm 6 mps 750 mmHg 62%
    20:00 +15°C° 0 mm 6 mps 750 mmHg 66%
    21:00 +15°C° 0 mm 5 mps 750 mmHg 67%
    22:00 +14°C° 0 mm 5 mps 750 mmHg 68%
    23:00 +14°C° 0 mm 5 mps 750 mmHg 70%

    Tomorrow, 28 June, Friday

    Time Temperature Precipitation Wind Pressure Humidity
    00:00 +13°C° 0 mm 5 mps 751 mmHg 71%
    01:00 +13°C° 0 mm 4 mps 751 mmHg 71%
    02:00 +13°C° 0 mm 4 mps 751 mmHg 72%
    03:00 +13°C° 0 mm 4 mps 751 mmHg 70%
    04:00 +13°C° 0 mm 4 mps 751 mmHg 68%
    05:00 +13°C° 0 mm 4 mps 751 mmHg 66%
    06:00 +14°C° 0 mm 5 mps 752 mmHg 61%
    07:00 +15°C° 0 mm 6 mps 752 mmHg 56%
    08:00 +16°C° 0 mm 6 mps 752 mmHg 51%
    09:00 +17°C° 0 mm 6 mps 752 mmHg 48%
    10:00 +18°C° 0 mm 7 mps 752 mmHg 45%
    11:00 +20°C° 0 mm 7 mps 752 mmHg 42%
    12:00 +20°C° 0 mm 7 mps 752 mmHg 40%
    13:00 +20°C° 0 mm 7 mps 752 mmHg 38%
    14:00 +21°C° 0 mm 7 mps 753 mmHg 35%
    15:00 +20°C° 0 mm 7 mps 753 mmHg 37%
    16:00 +20°C° 0 mm 7 mps 753 mmHg 39%
    17:00 +20°C° 0 mm 7 mps 753 mmHg 40%
    18:00 +17°C° 0 mm 6 mps 753 mmHg 47%
    19:00 +16°C° 0 mm 5 mps 754 mmHg 53%
    20:00 +15°C° 0 mm 5 mps 754 mmHg 60%
    21:00 +14°C° 0 mm 4 mps 754 mmHg 65%
    22:00 +12°C° 0 mm 4 mps 754 mmHg 71%
    23:00 +11°C° 0 mm 3 mps 755 mmHg 76%

    Day after tomorrow, 29 June, Saturday

    Time Temperature Precipitation Wind Pressure Humidity
    00:00 +11°C° 0 mm 3 mps 754 mmHg 78%
    01:00 +10°C° 0 mm 3 mps 754 mmHg 80%
    02:00 +10°C° 0 mm 3 mps 754 mmHg 81%
    03:00 +10°C° 0 mm 3 mps 754 mmHg 78%
    04:00 +10°C° 0 mm 3 mps 754 mmHg 75%
    05:00 +11°C° 0 mm 3 mps 754 mmHg 72%
    06:00 +12°C° 0 mm 3 mps 754 mmHg 72%
    07:00 +14°C° 0 mm 4 mps 754 mmHg 73%
    08:00 +15°C° 0 mm 4 mps 754 mmHg 73%
    09:00 +15°C° 0.2 mm 4 mps 754 mmHg 75%
    10:00 +17°C° 0.2 mm 4 mps 754 mmHg 77%
    11:00 +17°C° 0.2 mm 4 mps 754 mmHg 78%
    12:00 +18°C° 0.2 mm 4 mps 753 mmHg 72%
    13:00 +20°C° 0.2 mm 5 mps 753 mmHg 66%
    14:00 +21°C° 0.2 mm 5 mps 753 mmHg 60%
    15:00 +21°C° 0 mm 5 mps 753 mmHg 57%
    16:00 +21°C° 0 mm 5 mps 753 mmHg 54%
    17:00 +22°C° 0 mm 5 mps 752 mmHg 52%
    18:00 +20°C° 0 mm 4 mps 752 mmHg 57%
    19:00 +19°C° 0 mm 4 mps 753 mmHg 63%
    20:00 +18°C° 0 mm 3 mps 753 mmHg 69%
    21:00 +16°C° 0 mm 2 mps 753 mmHg 73%
    22:00 +15°C° 0 mm 2 mps 753 mmHg 76%
    23:00 +13°C° 0 mm 2 mps 753 mmHg 79%

    30 June, Sunday

    Time Temperature Precipitation Wind Pressure Humidity
    00:00 +13°C° 0 mm 2 mps 753 mmHg 81%
    01:00 +13°C° 0 mm 1 mps 753 mmHg 84%
    02:00 +13°C° 0 mm 1 mps 754 mmHg 86%
    03:00 +13°C° 0 mm 1 mps 753 mmHg 88%
    04:00 +13°C° 0 mm 1 mps 753 mmHg 89%
    05:00 +13°C° 0 mm 1 mps 753 mmHg 91%
    06:00 +16°C° 0 mm 1 mps 753 mmHg 83%
    07:00 +19°C° 0 mm 1 mps 753 mmHg 75%
    08:00 +21°C° 0 mm 1 mps 753 mmHg 67%
    09:00 +21°C° 0 mm 2 mps 753 mmHg 63%
    10:00 +24°C° 0 mm 3 mps 752 mmHg 59%
    11:00 +26°C° 0 mm 4 mps 752 mmHg 55%
    12:00 +26°C° 0 mm 4 mps 752 mmHg 57%
    13:00 +27°C° 0 mm 4 mps 751 mmHg 58%
    14:00 +27°C° 0 mm 5 mps 751 mmHg 60%
    15:00 +27°C° 0 mm 5 mps 750 mmHg 58%
    16:00 +28°C° 0 mm 5 mps 750 mmHg 55%
    17:00 +28°C° 0 mm 5 mps 750 mmHg 53%
    18:00 +26°C° 0 mm 4 mps 750 mmHg 60%
    19:00 +25°C° 0 mm 4 mps 749 mmHg 67%
    20:00 +22°C° 0 mm 3 mps 749 mmHg 75%
    21:00 +21°C° 0 mm 3 mps 749 mmHg 79%
    22:00 +19°C° 0 mm 3 mps 749 mmHg 84%
    23:00 +18°C° 0 mm 3 mps 748 mmHg 89%

    1 July, Monday

    Time Temperature Precipitation Wind Pressure Humidity
    00:00 +19°C° 0 mm 3 mps 748 mmHg 89%
    01:00 +19°C° 0 mm 3 mps 747 mmHg 89%
    02:00 +19°C° 0 mm 4 mps 747 mmHg 90%
    03:00 +20°C° 0 mm 4 mps 747 mmHg 88%
    04:00 +20°C° 0 mm 4 mps 746 mmHg 85%
    05:00 +20°C° 0 mm 4 mps 746 mmHg 83%
    06:00 +21°C° 0 mm 5 mps 746 mmHg 81%
    07:00 +22°C° 0 mm 5 mps 746 mmHg 78%
    08:00 +22°C° 0 mm 5 mps 746 mmHg 75%
    09:00 +23°C° 0 mm 5 mps 746 mmHg 66%
    10:00 +25°C° 0 mm 5 mps 747 mmHg 58%
    11:00 +24°C° 0 mm 6 mps 747 mmHg 49%
    12:00 +26°C° 0 mm 6 mps 747 mmHg 49%
    13:00 +26°C° 0 mm 6 mps 747 mmHg 49%
    14:00 +26°C° 0 mm 6 mps 747 mmHg 49%
    15:00 +24°C° 0 mm 6 mps 748 mmHg 51%
    16:00 +22°C° 0 mm 6 mps 748 mmHg 54%
    17:00 +21°C° 0 mm 6 mps 748 mmHg 57%
    18:00 +20°C° 0 mm 5 mps 748 mmHg 63%
    19:00 +19°C° 0 mm 4 mps 748 mmHg 70%
    20:00 +18°C° 0 mm 4 mps 748 mmHg 77%
    21:00 +17°C° 0 mm 4 mps 748 mmHg 80%
    22:00 +16°C° 0 mm 3 mps 748 mmHg 83%
    23:00 +14°C° 0 mm 3 mps 748 mmHg 87%

    2 July, Tuesday

    Time Temperature Precipitation Wind Pressure Humidity
    00:00 +14°C° 0 mm 3 mps 748 mmHg 88%
    01:00 +14°C° 0 mm 3 mps 747 mmHg 89%
    02:00 +14°C° 0 mm 3 mps 747 mmHg 90%
    03:00 +14°C° 0 mm 4 mps 747 mmHg 88%
    04:00 +14°C° 0 mm 4 mps 747 mmHg 86%
    05:00 +14°C° 0 mm 4 mps 747 mmHg 84%
    06:00 +15°C° 0.1 mm 4 mps 747 mmHg 82%
    07:00 +17°C° 0.1 mm 4 mps 747 mmHg 79%
    08:00 +17°C° 0.1 mm 5 mps 747 mmHg 77%
    09:00 +17°C° 0.5 mm 5 mps 747 mmHg 75%
    10:00 +19°C° 0.5 mm 5 mps 747 mmHg 74%
    11:00 +19°C° 0.5 mm 5 mps 747 mmHg 73%
    12:00 +20°C° 0.6 mm 5 mps 747 mmHg 71%
    13:00 +20°C° 0.6 mm 5 mps 747 mmHg 69%
    14:00 +21°C° 0.6 mm 5 mps 747 mmHg 67%
    15:00 +20°C° 0.7 mm 5 mps 747 mmHg 72%
    16:00 +19°C° 0.7 mm 5 mps 747 mmHg 78%
    17:00 +17°C° 0.7 mm 5 mps 747 mmHg 83%
    18:00 +16°C° 0.6 mm 5 mps 746 mmHg 85%
    19:00 +15°C° 0.6 mm 4 mps 746 mmHg 88%
    20:00 +13°C° 0.6 mm 4 mps 746 mmHg 91%
    21:00 +12°C° 0.1 mm 4 mps 746 mmHg 91%
    22:00 +11°C° 0.1 mm 4 mps 747 mmHg 91%
    23:00 +10°C° 0.1 mm 3 mps 747 mmHg 91%
    Show more